Regional Weather Roundup
Issued by NWS Upton, NY

Current Version | Previous Version | Text Only | Print | Product List | Glossary On
Versions: 1 2 3 4 5 6 7 8 9 10 11 12 13 14 15 16 17 18 19 20 21 22 23 24 25 26 27 28 29 30 31 32 33 34 35 36 37 38 39 40 41 42 43 44 45 46 47 48 49 50
000 ASUS41 KOKX 231408 RWROKX REGIONAL WEATHER ROUNDUP NATIONAL WEATHER SERVICE NEW YORK NY 900 AM EST MON JAN 23 2017 NOTE: "FAIR" INDICATES FEW OR NO CLOUDS BELOW 12,000 FEET WITH NO SIGNIFICANT WEATHER AND/OR OBSTRUCTIONS TO VISIBILITY. NYZ071-072-176-178-NJZ106-104-231500- NEW YORK CITY METRO AREA CITY SKY/WX TMP DP RH WIND PRES REMARKS Central Park CLOUDY 40 31 70 E23G33 29.86F WCI 30 Wall St Helipt CLOUDY 41 33 73 NE26G37 29.81F LaGuardia APRT CLOUDY 42 31 64 E22G39 29.85F Kennedy INTL CLOUDY 42 34 73 NE30G37 29.84F Breezy Point N/A 39 N/A N/A NE21G35 N/A WCI 29 Newark/Liberty CLOUDY 42 32 67 E28G37 29.83F Teterboro CLOUDY 42 31 64 NE16G26 29.83F $$ NYZ177-179-078>081-231500- LONG ISLAND NEW YORK CITY SKY/WX TMP DP RH WIND PRES REMARKS Jones Beach N/A 39 N/A N/A E33G39 N/A WCI 27 Matinecock PT N/A 39 N/A N/A E38G48 N/A WCI 26 Farmingdale CLOUDY 40 30 67 NE23G37 29.84F WCI 30 MacArthur/ISP CLOUDY 40 31 70 E18G35 29.85S WCI 31 Shirley CLOUDY 39 32 76 NE14G25 29.87S WCI 31 Westhampton CLOUDY 39 31 72 NE23G37 29.89R WCI 28 Southampton NOT AVBL Bridgehampton NOT AVBL East Hampton CLOUDY 38 31 77 E20G32 29.90R WCI 28 Montauk N/A 39 32 76 NE20G35 29.92S WCI 29 $$ NYZ052-065-067-231500- HUDSON VALLEY CITY SKY/WX TMP DP RH WIND PRES REMARKS White Plains CLOUDY 39 29 67 E17G28 29.85S WCI 30 Newburgh CLOUDY 37 32 81 E17G29 29.90R WCI 28 Montgomery CLOUDY 39 31 72 NE15G23 29.88R WCI 31 Poughkeepsie CLOUDY 38 29 70 NE12G18 29.92R WCI 30 Albany CLOUDY 38 26 62 NE16 29.96S WCI 29 $$ NJZ001-105-106-008-010-013-015-019>022-104-231500- NEW JERSEY CITY SKY/WX TMP DP RH WIND PRES REMARKS Newark/Liberty CLOUDY 42 32 67 E28G37 29.83F Teterboro CLOUDY 42 31 64 NE16G26 29.83F Caldwell CLOUDY 41 31 67 E18G31 29.83F Somerville CLOUDY 40 32 73 E13G29 29.77F WCI 32 Linden CLOUDY 41 32 70 E21G30 29.81F Sussex CLOUDY 39 33 79 NE14G23 29.82F WCI 31 Andover N/A 39 32 76 NE8 29.80F WCI 33 Trenton CLOUDY 39 37 92 E21G36 29.74F FOG WCI 29 Millville CLOUDY 44 42 93 NE29G48 29.62S FOG Atlantic City CLOUDY 43 41 93 E26G43 29.65S FOG Wrightstown NOT AVBL Toms River LGT RAIN 40 39 97 NE17G32 29.74F FOG WCI 31 Belmar LGT RAIN 39 36 89 NE26G45 29.77F WCI 28 $$ PAZ047>061-062-071-231500- EASTERN PENNSYLVANIA CITY SKY/WX TMP DP RH WIND PRES REMARKS Philadelphia LGT RAIN 41 36 81 E24G44 29.70R Allentown CLOUDY 42 34 73 E20G26 29.74R Scranton CLOUDY 38 34 85 E13 29.77R FOG WCI 30 $$ CTZ002-004>006-009-010-012-RIZ004-006-007-MAZ004-011-015-231500- SOUTHERN NEW ENGLAND IN CT CITY SKY/WX TMP DP RH WIND PRES REMARKS Bradley INTL CLOUDY 35 31 85 NE15 29.99R WCI 25 Hartford CLOUDY 38 30 73 NE15 29.97R WCI 29 Danbury CLOUDY 37 29 72 NE13G28 29.90R WCI 29 Wtrbury/Oxford LGT SNOW 36 28 75 E17G29 29.91R FOG WCI 25 Bridgeport CLOUDY 41 30 65 E24G33 29.90S Meriden CLOUDY 39 30 70 NE12G21 29.94R WCI 32 New Haven CLOUDY 40 30 67 NE15G26 29.91S WCI 32 Chester CLOUDY 37 30 75 NE20G26 29.91F WCI 27 Groton CLOUDY 39 29 67 NE23G35 29.93S WCI 28 Wilimantic CLOUDY 38 32 79 E12G20 29.98R WCI 30 IN RI CITY SKY/WX TMP DP RH WIND PRES REMARKS Providence PTSUNNY 37 32 82 NE16 29.99R WCI 28 Block Island NOT AVBL Westerly CLOUDY 39 28 64 NE17G23 29.95S WCI 30 IN MA CITY SKY/WX TMP DP RH WIND PRES REMARKS Boston NOT AVBL Worcester LGT SNOW 28 26 92 NE14G23 29.96S VSB 1 WCI 17 Westfield CLOUDY 35 28 75 NE9G20 29.99R WCI 28 Provincetown CLOUDY 37 33 85 E16G28 30.03R WCI 28 Nantucket CLOUDY 39 32 76 NE18G33 29.94S WCI 30 $$ ANZ330-335-338-340-345-350-353-355-231500- COASTAL MARINE OBSERVATIONS STATION/POSITION TIME SKY/WX TEMP WIND PRES VSBY WAVE AIR SEA DIR/SP/G HT/PER (UTC) (F) (DEG/KT/KT) (MB) (MI) (FT/S) NY HARB ENTRANCE 1250 41 43 60/ 31/ 41 1008.4 12/ 9 20 S FIRE ISLAND 1250 43 45 60/ 35/ 41 1007.2 13/ 8 GREAT SOUTH BAY NOT AVBL 23 SSW MONTAUK P 1250 42 47 60/ 31/ 37 1010.6 12/ 9 15 E BARNEGAT LI 1330 47 N/A 16/ 9 HUDSON CANYON 1250 48 52 1005.2 16/10 KINGS POINT 1330 40 39 1010.6 EXECUTION ROCKS 1345 40 60/ 23/ 31 N/A CENTRAL LI SOUND 1330 40 70/ 25/ 31 N/A 5/ 5 EASTERN LI SOUND NOT AVBL ROBBINS REEF 1324 41 60/ 25/ 30 1009.9 $$ >>>>>>>>>>>>>>>>>>>>>>>>>>>> KEY <<<<<<<<<<<<<<<<<<<<<<<<<<< > < > SKY/WX - Sky Condition/Present Weather < > TMP - Temperature in Fahrenheit < > DP - Dew Point in Fahrenheit < > RH - Relative Humidity in Percent < > WIND - Direction (from) and Speed in MPH < > PRES - Mean Sea Level Pressure (inches of Hg) < > WCI - Wind Chill Index < > VSB - VISIBILITY IN MILES < > HX - HEAT INDEX < > TC - TEMPERATURE IN CELSIUS < > VRB - VARIABLE WIND DIRECTION < > < >>>>>>>>>>>>>>>>>>>>>>>>>>>> KEY <<<<<<<<<<<<<<<<<<<<<<<<<<<

USA.gov is the U.S. government's official web portal to all federal, state and local government web resources and services.